• In Moldova, Republic
  • List of Countries
  • For 7 days
  • Water Temperature
  • Satellite Maps
  • Weather Map
  • Weather Widgets
  • user-avatar
    Login

    Hourly Weather Tibissa

    Today, 28 April, Friday

    Time Temperature Precipitation Wind Pressure Humidity
    00:00 +18°C° 0 mm 4 mps 682 mmHg 50%
    01:00 +18°C° 0 mm 4 mps 682 mmHg 48%
    02:00 +17°C° 0 mm 4 mps 682 mmHg 53%
    03:00 +16°C° 0 mm 3 mps 681 mmHg 59%
    04:00 +15°C° 0 mm 2 mps 681 mmHg 64%
    05:00 +16°C° 0 mm 2 mps 681 mmHg 64%
    06:00 +16°C° 0 mm 2 mps 681 mmHg 64%
    07:00 +16°C° 0 mm 3 mps 682 mmHg 64%
    08:00 +19°C° 0 mm 3 mps 682 mmHg 54%
    09:00 +21°C° 0 mm 4 mps 683 mmHg 44%
    10:00 +23°C° 0 mm 5 mps 683 mmHg 34%
    11:00 +26°C° 0 mm 6 mps 683 mmHg 30%
    12:00 +27°C° 0 mm 7 mps 683 mmHg 26%
    13:00 +29°C° 0 mm 8 mps 683 mmHg 23%
    14:00 +29°C° 0 mm 8 mps 682 mmHg 22%
    15:00 +29°C° 0 mm 8 mps 682 mmHg 22%
    16:00 +29°C° 0 mm 8 mps 681 mmHg 22%
    17:00 +26°C° 0 mm 7 mps 681 mmHg 32%
    18:00 +22°C° 0 mm 6 mps 681 mmHg 43%
    19:00 +19°C° 0 mm 5 mps 680 mmHg 54%
    20:00 +17°C° 0 mm 5 mps 680 mmHg 63%
    21:00 +15°C° 0 mm 5 mps 681 mmHg 72%
    22:00 +13°C° 0 mm 5 mps 681 mmHg 81%
    23:00 +12°C° 0 mm 5 mps 681 mmHg 81%

    Tomorrow, 29 April, Saturday

    Time Temperature Precipitation Wind Pressure Humidity
    00:00 +12°C° 0 mm 5 mps 682 mmHg 81%
    01:00 +10°C° 0 mm 5 mps 682 mmHg 81%
    02:00 +11°C° 0 mm 4 mps 682 mmHg 83%
    03:00 +11°C° 0 mm 4 mps 682 mmHg 84%
    04:00 +10°C° 0 mm 3 mps 681 mmHg 85%
    05:00 +11°C° 0 mm 3 mps 682 mmHg 83%
    06:00 +12°C° 0 mm 2 mps 682 mmHg 82%
    07:00 +12°C° 0 mm 2 mps 682 mmHg 80%
    08:00 +14°C° 0 mm 2 mps 683 mmHg 70%
    09:00 +16°C° 0 mm 2 mps 683 mmHg 60%
    10:00 +18°C° 0 mm 2 mps 684 mmHg 50%
    11:00 +20°C° 0 mm 2 mps 684 mmHg 44%
    12:00 +22°C° 0 mm 3 mps 684 mmHg 39%
    13:00 +25°C° 0 mm 3 mps 684 mmHg 33%
    14:00 +23°C° 0.5 mm 4 mps 684 mmHg 36%
    15:00 +23°C° 0.5 mm 4 mps 684 mmHg 39%
    16:00 +22°C° 0.5 mm 4 mps 683 mmHg 41%
    17:00 +21°C° 0.5 mm 4 mps 683 mmHg 47%
    18:00 +20°C° 0.5 mm 3 mps 683 mmHg 53%
    19:00 +18°C° 0.5 mm 3 mps 683 mmHg 59%
    20:00 +17°C° 0.1 mm 3 mps 683 mmHg 63%
    21:00 +16°C° 0.1 mm 2 mps 684 mmHg 68%
    22:00 +15°C° 0.1 mm 2 mps 684 mmHg 72%
    23:00 +15°C° 0 mm 2 mps 684 mmHg 75%

    Day after tomorrow, 30 April, Sunday

    Time Temperature Precipitation Wind Pressure Humidity
    00:00 +14°C° 0 mm 1 mps 683 mmHg 77%
    01:00 +13°C° 0 mm 1 mps 683 mmHg 80%
    02:00 +13°C° 0 mm 1 mps 683 mmHg 81%
    03:00 +12°C° 0 mm 1 mps 683 mmHg 82%
    04:00 +12°C° 0 mm 1 mps 682 mmHg 83%
    05:00 +13°C° 0 mm 1 mps 683 mmHg 79%
    06:00 +14°C° 0 mm 1 mps 683 mmHg 75%
    07:00 +15°C° 0 mm 1 mps 683 mmHg 71%
    08:00 +18°C° 0 mm 1 mps 684 mmHg 62%
    09:00 +20°C° 0 mm 1 mps 684 mmHg 53%
    10:00 +23°C° 0 mm 1 mps 685 mmHg 45%
    11:00 +23°C° 0.4 mm 2 mps 685 mmHg 43%
    12:00 +24°C° 0.4 mm 2 mps 685 mmHg 42%
    13:00 +24°C° 0.4 mm 3 mps 684 mmHg 41%
    14:00 +24°C° 1.4 mm 3 mps 684 mmHg 43%
    15:00 +23°C° 1.4 mm 4 mps 684 mmHg 46%
    16:00 +22°C° 1.4 mm 4 mps 683 mmHg 49%
    17:00 +21°C° 1.1 mm 3 mps 683 mmHg 58%
    18:00 +19°C° 1.1 mm 3 mps 683 mmHg 66%
    19:00 +17°C° 1.1 mm 3 mps 683 mmHg 75%
    20:00 +17°C° 0.2 mm 2 mps 684 mmHg 78%
    21:00 +16°C° 0.2 mm 2 mps 684 mmHg 80%
    22:00 +15°C° 0.2 mm 1 mps 684 mmHg 83%
    23:00 +15°C° 0 mm 1 mps 684 mmHg 84%

    1 May, Monday

    Time Temperature Precipitation Wind Pressure Humidity
    00:00 +14°C° 0 mm 1 mps 684 mmHg 86%
    01:00 +14°C° 0 mm 1 mps 684 mmHg 87%
    02:00 +13°C° 0 mm 1 mps 684 mmHg 88%
    03:00 +13°C° 0 mm 1 mps 684 mmHg 89%
    04:00 +12°C° 0 mm 1 mps 684 mmHg 89%
    05:00 +13°C° 0 mm 2 mps 684 mmHg 85%
    06:00 +14°C° 0 mm 2 mps 685 mmHg 80%
    07:00 +14°C° 0 mm 2 mps 685 mmHg 76%
    08:00 +16°C° 0 mm 3 mps 686 mmHg 68%
    09:00 +17°C° 0 mm 3 mps 686 mmHg 61%
    10:00 +19°C° 0 mm 3 mps 687 mmHg 53%
    11:00 +20°C° 0 mm 3 mps 687 mmHg 49%
    12:00 +21°C° 0 mm 3 mps 687 mmHg 45%
    13:00 +22°C° 0 mm 3 mps 687 mmHg 41%
    14:00 +22°C° 0 mm 3 mps 687 mmHg 41%
    15:00 +22°C° 0 mm 3 mps 687 mmHg 41%
    16:00 +22°C° 0 mm 4 mps 687 mmHg 41%
    17:00 +20°C° 0 mm 4 mps 687 mmHg 46%
    18:00 +19°C° 0 mm 4 mps 687 mmHg 52%
    19:00 +18°C° 0 mm 4 mps 687 mmHg 57%
    20:00 +17°C° 0 mm 3 mps 687 mmHg 63%
    21:00 +14°C° 0 mm 3 mps 687 mmHg 70%
    22:00 +14°C° 0 mm 2 mps 687 mmHg 76%
    23:00 +13°C° 0 mm 2 mps 687 mmHg 78%

    2 May, Tuesday

    Time Temperature Precipitation Wind Pressure Humidity
    00:00 +13°C° 0 mm 2 mps 687 mmHg 80%
    01:00 +13°C° 0 mm 2 mps 687 mmHg 82%
    02:00 +12°C° 0 mm 2 mps 687 mmHg 83%
    03:00 +12°C° 0 mm 1 mps 686 mmHg 83%
    04:00 +11°C° 0 mm 1 mps 686 mmHg 84%
    05:00 +12°C° 0 mm 1 mps 687 mmHg 80%
    06:00 +12°C° 0 mm 1 mps 687 mmHg 76%
    07:00 +13°C° 0 mm 1 mps 687 mmHg 72%
    08:00 +15°C° 0 mm 2 mps 688 mmHg 64%
    09:00 +16°C° 0 mm 2 mps 688 mmHg 57%
    10:00 +18°C° 0 mm 2 mps 688 mmHg 49%
    11:00 +19°C° 0 mm 3 mps 688 mmHg 44%
    12:00 +21°C° 0 mm 3 mps 688 mmHg 39%
    13:00 +22°C° 0 mm 3 mps 688 mmHg 35%
    14:00 +22°C° 0 mm 3 mps 688 mmHg 35%
    15:00 +24°C° 0 mm 3 mps 687 mmHg 34%
    16:00 +24°C° 0 mm 3 mps 687 mmHg 34%
    17:00 +22°C° 0 mm 3 mps 687 mmHg 39%
    18:00 +20°C° 0 mm 3 mps 687 mmHg 44%
    19:00 +19°C° 0 mm 2 mps 686 mmHg 49%
    20:00 +18°C° 0 mm 2 mps 687 mmHg 54%
    21:00 +16°C° 0 mm 2 mps 687 mmHg 58%
    22:00 +15°C° 0 mm 2 mps 687 mmHg 63%
    23:00 +15°C° 0 mm 1 mps 686 mmHg 65%

    3 May, Wednesday

    Time Temperature Precipitation Wind Pressure Humidity
    00:00 +14°C° 0 mm 1 mps 686 mmHg 67%
    01:00 +14°C° 0 mm 1 mps 685 mmHg 69%
    02:00 +13°C° 0 mm 1 mps 685 mmHg 70%
    03:00 +13°C° 0 mm 1 mps 685 mmHg 72%
    04:00 +13°C° 0 mm 1 mps 684 mmHg 73%
    05:00 +14°C° 0 mm 2 mps 685 mmHg 70%
    06:00 +14°C° 0 mm 2 mps 685 mmHg 67%
    07:00 +15°C° 0 mm 2 mps 685 mmHg 64%
    08:00 +18°C° 0 mm 3 mps 686 mmHg 56%
    09:00 +20°C° 0 mm 4 mps 686 mmHg 48%
    10:00 +22°C° 0 mm 4 mps 687 mmHg 41%
    11:00 +23°C° 0 mm 5 mps 686 mmHg 37%
    12:00 +25°C° 0 mm 5 mps 686 mmHg 34%
    13:00 +26°C° 0 mm 5 mps 686 mmHg 31%
    14:00 +26°C° 0 mm 5 mps 686 mmHg 32%
    15:00 +26°C° 0 mm 5 mps 685 mmHg 33%
    16:00 +25°C° 0 mm 4 mps 685 mmHg 34%
    17:00 +23°C° 0.1 mm 4 mps 685 mmHg 39%
    18:00 +22°C° 0.1 mm 3 mps 685 mmHg 44%
    19:00 +21°C° 0.1 mm 2 mps 684 mmHg 49%
    20:00 +19°C° 0.1 mm 2 mps 684 mmHg 54%
    21:00 +18°C° 0.1 mm 2 mps 684 mmHg 59%
    22:00 +18°C° 0.1 mm 1 mps 685 mmHg 64%
    23:00 +16°C° 0 mm 1 mps 684 mmHg 66%
    Show more